This demonstration page uses our WeatherBlox Daily Observations layout. Learn more.

Left ArrowRight Arrow

39.51506, -84.39828

Hourly Observations for June 16, 2019

Temp ( °F °C ) Dew Point ( °F °C ) Humidity (%) Winds ( mph kmh ) Pressure ( in mb ) Visibility ( mi km ) Precip ( " mm )
12:15 am 00:15 Cloudy with Rain 69 20.5 68 20 97 97 WSW 6 9 29.84 1011 4 6 0.10 2.54
12:35 am 00:35 Mostly Cloudy with Light Rain 69 20.8 68 20.1 96 96 WSW 9 15 29.83 1010 10 16 0.14 3.56
12:55 am 00:55 Cloudy with Light Rain 70 21.2 68 20.2 94 94 WSW 15 24 29.83 1010 10 16 0.15 3.81
1:15 am 01:15 Mostly Cloudy with Light Rain 69 20.7 68 20.1 96 96 SW 12 19 29.83 1010 10 16 0.01 0.25
1:35 am 01:35 Partly Cloudy 69 20.5 68 20 97 97 SW 8 13 29.83 1010 10 16 0.01 0.25
1:55 am 01:55 Mostly Cloudy 69 20.4 68 20.1 98 98 SW 7 11 29.84 1011 7 11 0.01 0.25
2:15 am 02:15 Cloudy with Thunderstorms 69 20.6 68 20.2 98 98 WSW 7 11 29.83 1010 7 11 0.00 0.00
2:35 am 02:35 Cloudy 69 20.6 68 20.2 98 98 SW 6 9 29.82 1010 10 16 0.00 0.00
2:55 am 02:55 Cloudy with Nearby Thunderstorms 69 20.5 68 20.1 98 98 SW 7 11 29.81 1010 7 11 0.00 0.00
3:15 am 03:15 Cloudy with Mist and Fog 69 20.4 68 20.1 98 98 Calm 29.81 1010 7 11 0.00 0.00
3:35 am 03:35 Cloudy with Mist and Fog 69 20.3 68 20 98 98 SW 9 15 29.81 1010 3 4 0.14 3.56
3:55 am 03:55 Cloudy with Heavy Rain 67 19.6 66 19 96 96 WSW 12 19 29.82 1010 3 4 0.48 12.19
4:15 am 04:15 Cloudy with Heavy Rain 67 19.7 67 19.3 98 98 SW 8 13 29.81 1009 7 11 0.11 2.79
4:35 am 04:35 Cloudy with Nearby Thunderstorms 68 20.2 67 19.6 96 96 SW 5 7 29.79 1009 10 16 0.12 3.05
4:55 am 04:55 Cloudy with Nearby Thunderstorms 68 19.9 67 19.4 97 97 Calm 29.79 1009 10 16 0.12 3.05
5:15 am 05:15 Cloudy 68 20 67 19.5 97 97 Calm 29.78 1009 10 16 0.00 0.00
5:35 am 05:35 Partly Cloudy 68 20 67 19.6 98 98 Calm 29.80 1009 10 16 0.00 0.00
5:55 am 05:55 Mostly Cloudy 69 20.4 68 19.9 97 97 SSW 6 9 29.80 1009 10 16 0.00 0.00
6:15 am 06:15 Cloudy with Thunderstorms 69 20.4 68 19.9 97 97 SSW 12 19 29.79 1009 7 11 0.01 0.25
6:35 am 06:35 Cloudy with Thunderstorms 69 20.7 68 19.9 95 95 SW 13 20 29.81 1010 7 11 0.05 1.27
6:55 am 06:55 Cloudy with Thunderstorms 69 20.6 68 19.8 95 95 WSW 13 20 29.83 1010 7 11 0.08 2.03
7:15 am 07:15 Cloudy with Nearby Thunderstorms 69 20.3 67 19.4 95 95 SW 15 24 29.84 1011 5 8 0.05 1.27
7:35 am 07:35 Cloudy with Rain 68 19.8 67 19.2 96 96 SSW 10 17 29.83 1010 5 8 0.12 3.05
7:55 am 07:55 Cloudy with Light Rain 67 19.6 66 19 96 96 WSW 10 17 29.83 1010 7 11 0.15 3.81
8:15 am 08:15 Cloudy with Light Rain 67 19.5 66 19 97 97 SW 9 15 29.84 1010 10 16 0.01 0.25
8:35 am 08:35 Cloudy with Light Rain 67 19.6 66 18.9 96 96 SW 9 15 29.83 1010 10 16 0.01 0.25
8:55 am 08:55 Mostly Cloudy 67 19.7 66 18.9 95 95 SW 16 26 29.86 1011 10 16 0.01 0.25
9:15 am 09:15 Cloudy 68 20 66 18.7 92 92 SW 15 24 29.85 1011 10 16 0.00 0.00
9:35 am 09:35 Cloudy 69 20.7 66 19.1 91 91 WSW 13 20 29.86 1011 10 16 0.00 0.00
9:55 am 09:55 Mostly Cloudy 70 20.9 67 19.2 90 90 SW 12 19 29.86 1011 10 16 0.00 0.00
10:15 am 10:15 Mostly Cloudy 71 21.8 67 19.7 88 88 SW 13 20 29.88 1012 10 16 0.00 0.00
10:35 am 10:35 Mostly Cloudy 73 22.5 67 19.4 83 83 SW 12 19 29.87 1011 10 16 0.00 0.00
10:55 am 10:55 Mostly Cloudy 72 22.2 67 19.4 84 84 WSW 13 20 29.89 1012 10 16 0.00 0.00
11:15 am 11:15 Cloudy 71 21.9 67 19.2 85 85 SW 9 15 29.88 1012 10 16 0.00 0.00
11:35 am 11:35 Mostly Cloudy 71 21.8 67 19.2 85 85 SW 12 19 29.89 1012 10 16 0.00 0.00
11:55 am 11:55 Sunny 72 22.2 67 19.2 83 83 SW 13 20 29.89 1012 10 16 0.00 0.00
12:15 pm 12:15 Mostly Cloudy 73 22.9 67 19.5 81 81 WSW 15 24 29.89 1012 10 16 0.00 0.00
12:35 pm 12:35 Cloudy 73 22.5 66 19 81 81 SW 12 19 29.88 1012 10 16 0.00 0.00
12:55 pm 12:55 Partly Cloudy 73 22.6 67 19.2 81 81 SW 14 22 29.89 1012 10 16 0.00 0.00
1:15 pm 13:15 Mostly Cloudy 74 23.1 67 19.3 79 79 WSW 15 24 29.90 1012 10 16 0.00 0.00
1:35 pm 13:35 Partly Cloudy 74 23.4 67 19.6 79 79 SW 13 20 29.90 1012 10 16 0.00 0.00
1:55 pm 13:55 Partly Cloudy 76 24.2 69 20.3 79 79 SW 14 22 29.88 1012 10 16 0.00 0.00
2:15 pm 14:15 Sunny 76 24.7 69 20.7 79 79 SSW 15 24 29.88 1012 10 16 0.00 0.00
2:35 pm 14:35 Mostly Cloudy with Nearby Thunderstorms 76 24.5 69 20.5 78 78 SSW 10 17 29.87 1012 10 16 0.00 0.00
2:55 pm 14:55 Cloudy 76 24.7 69 20.6 78 78 SSW 8 13 29.87 1012 10 16 0.00 0.00
3:15 pm 15:15 Cloudy 77 24.8 69 20.5 77 77 SSW 10 17 29.87 1012 10 16 0.00 0.00
3:35 pm 15:35 Cloudy 76 24.6 69 20.7 79 79 SW 12 19 29.87 1012 10 16 0.00 0.00
3:55 pm 15:55 Cloudy 78 25.8 70 21.2 76 76 SW 9 15 29.86 1011 10 16 0.00 0.00
4:15 pm 16:15 Cloudy 80 26.5 71 21.4 74 74 SW 12 19 29.86 1011 10 16 0.00 0.00
4:35 pm 16:35 Partly Cloudy 79 26.2 71 21.4 75 75 SW 14 22 29.85 1011 10 16 0.00 0.00
4:55 pm 16:55 Sunny 80 26.9 71 21.9 74 74 SW 9 15 29.84 1010 10 16 0.00 0.00
5:15 pm 17:15 Partly Cloudy 79 26.3 71 21.5 75 75 SW 10 17 29.85 1011 10 16 0.00 0.00
5:35 pm 17:35 Mostly Cloudy 80 26.4 72 22 77 77 SW 9 15 29.85 1011 10 16 0.00 0.00
5:55 pm 17:55 Partly Cloudy 79 26 71 21.8 78 78 SW 10 17 29.85 1011 10 16 0.00 0.00
6:15 pm 18:15 Partly Cloudy 78 25.5 71 21.8 80 80 SW 8 13 29.84 1011 10 16 0.00 0.00
6:35 pm 18:35 Mostly Cloudy with Nearby Thunderstorms 78 25.6 72 22.1 81 81 WSW 5 7 29.82 1010 10 16 0.00 0.00
6:55 pm 18:55 Sunny 78 25.7 72 22.3 82 82 Calm 29.81 1010 10 16 0.00 0.00
7:15 pm 19:15 Sunny 78 25.7 73 22.6 83 83 N 3 6 29.81 1010 10 16 0.00 0.00
7:35 pm 19:35 Mostly Cloudy 78 25.4 73 22.8 86 86 Calm 29.81 1010 10 16 0.00 0.00
7:55 pm 19:55 Mostly Cloudy 77 25.2 73 22.9 87 87 Calm 29.80 1009 10 16 0.00 0.00
8:15 pm 20:15 Sunny 77 25.2 72 22.2 84 84 Calm 29.80 1009 10 16 0.00 0.00
8:35 pm 20:35 Sunny 76 24.2 73 22.5 90 90 WSW 6 9 29.83 1010 10 16 0.00 0.00
8:55 pm 20:55 Partly Cloudy 75 23.8 73 22.5 92 92 SW 7 11 29.84 1010 10 16 0.00 0.00
9:15 pm 21:15 Mostly Cloudy with Light Rain 75 23.9 73 22.5 92 92 SW 7 11 29.83 1010 10 16 0.00 0.00
9:35 pm 21:35 Clear with Light Rain 74 23.6 72 22.3 92 92 WSW 6 9 29.85 1011 10 16 0.00 0.00
9:55 pm 21:55 Mostly Cloudy 74 23.3 72 22.3 94 94 SW 9 15 29.86 1011 10 16 0.00 0.00
10:15 pm 22:15 Partly Cloudy with Nearby Thunderstorms 74 23.4 72 22.1 92 92 SW 7 11 29.87 1011 10 16 0.00 0.00
10:35 pm 22:35 Partly Cloudy 74 23.1 72 22 94 94 SW 7 11 29.88 1012 10 16 0.00 0.00
10:55 pm 22:55 Partly Cloudy 73 22.9 71 21.5 92 92 SW 9 15 29.89 1012 10 16 0.00 0.00
11:15 pm 23:15 Partly Cloudy 73 22.7 70 20.9 90 90 SSW 10 17 29.90 1012 10 16 0.00 0.00
11:35 pm 23:35 Cloudy with Light Rain 71 21.7 68 20.1 91 91 SW 9 15 29.92 1013 10 16 0.00 0.00
11:55 pm 23:55 Cloudy with Light Rain 70 20.9 68 19.9 94 94 WSW 6 9 29.92 1013 10 16 0.02 0.51

Powered by AerisWeather